Theta_e
300 299 299 298 297 297 298 299 301 302 304 307 310 314 318 329 339 340 341 344 343 341 343 344 342 342 341 341 340 339 337 336
298 298 297 296 295 295 296 297 298 299 301 304 307 309 315 319 328 338 339 340 343 342 342 344 343 341 341 342 340 339 339 338
297 296 296 295 294 294 294 294 296 297 300 302 305 308 312 315 318 324 337 338 341 343 342 344 343 342 341 342 342 341 340 339
295 295 294 293 293 292 292 293 295 297 299 302 305 307 311 314 317 323 336 338 341 340 340 342 343 343 342 341 340 340 339 338
294 293 292 292 291 291 291 292 293 296 300 301 303 305 309 311 315 319 322 336 339 342 340 340 343 341 340 341 340 337 336 335
293 292 292 291 290 290 290 291 292 294 299 301 302 305 310 311 315 321 327 328 338 340 340 339 341 339 337 336 337 336 335 334
293 292 291 290 290 290 290 291 291 293 296 300 302 305 308 313 317 324 331 333 336 337 340 339 340 338 336 336 335 334 334 333
292 291 290 289 289 290 290 290 291 291 295 299 301 304 306 315 320 325 324 321 323 322 330 334 336 338 337 335 334 336 335 334
291 290 290 289 289 289 289 289 290 290 293 297 300 301 303 308 310 314 314 315 318 320 321 321 327 331 337 337 335 337 336 335
290 289 289 289 289 289 289 289 289 289 291 295 298 299 300 301 303 307 303 307 308 318 322 318 319 321 324 331 335 336 336 335
289 289 289 289 288 289 288 289 289 289 290 293 294 297 297 298 298 300 301 298 307 312 315 313 316 318 320 312 322 324 328 331
288 288 288 289 288 288 288 288 289 288 290 291 292 294 294 295 295 294 295 296 297 298 301 302 301 305 309 309 309 310 312 315
288 288 288 288 288 288 288 288 288 288 289 290 291 293 292 293 292 293 292 291 291 291 293 300 294 297 297 300 301 302 302 302
288 287 288 288 288 288 288 287 287 287 288 289 290 291 291 291 290 290 291 290 289 289 289 289 290 292 294 295 298 297 296 295
288 288 288 289 288 287 287 287 287 287 287 288 288 289 289 290 289 288 288 288 288 287 287 287 288 289 291 291 292 292 293 292
287 288 288 289 288 287 287 287 286 286 287 287 288 288 289 288 288 288 287 286 286 285 285 285 286 286 288 290 289 288 288 288
287 287 287 288 288 287 287 287 286 286 285 286 286 287 287 288 287 287 287 286 285 285 284 284 284 284 285 286 287 288 287 286
287 286 287 287 288 287 287 287 286 286 286 285 285 285 285 286 286 286 286 285 284 283 283 282 283 283 283 284 285 286 286 285
287 286 287 286 287 287 286 286 286 285 286 285 284 284 284 284 284 284 284 284 284 282 281 280 281 282 282 282 283 283 284 284
Wind_Speed
31 36 34 34 37 36 34 38 38 37 33 33 37 34 33 24 38 36 38 39 43 42 35 35 36 36 33 33 32 30 29 25
26 30 32 34 35 38 35 37 39 37 33 30 29 33 34 37 25 36 35 42 43 45 42 32 37 40 37 33 30 30 27 26
24 28 29 32 34 35 34 36 35 37 30 29 25 28 33 34 36 35 36 52 48 51 45 36 38 40 37 33 33 26 24 26
16 26 29 33 33 35 35 34 33 35 33 29 25 24 29 31 28 28 32 44 51 48 48 42 39 38 38 35 36 31 25 27
17 24 29 31 32 33 32 32 33 31 30 26 26 25 27 31 33 33 37 38 41 47 50 44 43 43 37 36 35 34 27 25
16 23 27 30 31 32 31 32 33 35 29 26 26 27 24 32 32 33 32 35 43 46 51 44 41 43 39 38 32 34 33 24
19 24 27 29 32 32 33 33 33 33 33 28 27 27 27 29 32 30 19 26 37 44 46 43 36 38 40 41 35 35 34 30
14 21 26 30 32 32 31 32 33 35 34 28 26 27 27 18 14 8 11 6 3 12 2 27 24 35 35 38 37 34 38 35
13 21 25 29 31 31 32 33 34 35 33 33 27 23 20 14 9 16 9 8 15 19 20 16 10 3 20 35 38 34 35 37
13 21 25 28 31 29 29 32 39 40 34 32 29 26 18 13 13 34 28 21 11 4 25 21 4 10 18 18 30 29 29 31
12 19 24 27 30 30 32 36 45 43 39 31 30 24 18 13 25 46 37 30 29 22 19 25 25 19 9 24 26 19 8 2
9 18 23 25 29 31 33 39 48 45 42 35 30 23 17 19 40 45 44 39 43 39 35 34 33 29 26 25 29 27 22 17
8 15 20 25 27 30 33 39 41 41 42 40 29 22 22 40 43 42 41 34 41 39 44 42 36 35 33 34 32 29 27 27
7 15 18 21 27 29 31 34 37 37 38 35 33 34 40 45 44 44 43 38 44 47 45 43 42 42 40 38 37 32 32 32
9 12 18 20 24 27 29 31 33 30 30 34 38 41 41 42 43 45 48 38 42 48 48 47 45 44 38 35 36 34 33 32
10 10 16 19 24 28 30 32 33 33 33 37 38 38 35 40 39 39 40 41 41 43 49 41 42 41 37 28 30 31 29 30
8 10 15 18 20 23 23 27 29 30 33 32 32 33 36 36 37 38 39 40 38 36 33 33 36 38 34 35 29 26 27 33
5 8 12 18 17 20 22 22 25 24 27 30 29 29 33 33 32 35 36 36 35 35 33 34 39 41 41 35 36 31 31 33
5 9 12 17 18 17 19 20 21 25 26 28 29 29 30 29 31 34 33 30 29 32 32 34 33 39 39 34 31 34 30 29
Wind_Direction
357 355 353 351 347 342 337 334 331 331 330 325 318 318 318 309 250 232 224 212 212 212 216 217 211 207 209 212 214 217 218 218
356 352 345 343 342 338 333 333 328 329 327 326 322 316 314 311 307 250 240 232 215 212 210 209 211 210 206 205 204 209 210 209
354 347 347 343 335 332 329 327 323 321 317 313 308 303 299 298 300 296 235 239 224 211 209 209 208 205 207 200 201 198 202 197
348 347 345 341 338 330 326 322 320 317 317 313 309 308 299 297 293 293 265 236 219 212 214 211 208 200 201 206 210 200 197 198
351 349 346 342 335 328 324 324 321 318 312 313 307 299 287 288 289 289 278 254 225 211 210 206 209 209 200 201 207 211 208 209
351 347 345 340 337 335 331 332 329 329 319 315 310 293 283 283 281 283 276 280 236 218 207 200 204 210 209 206 208 212 210 205
348 349 350 340 343 342 339 338 334 337 330 323 320 306 299 278 273 266 270 266 245 231 200 193 197 199 203 204 205 211 209 209
352 353 347 346 346 341 344 345 343 342 335 332 331 324 313 279 260 182 95 12 14 315 205 165 189 206 209 205 205 209 211 208
354 353 346 347 343 344 347 352 349 349 348 341 347 342 337 308 87 107 106 85 65 45 348 66 100 147 213 220 211 209 206 210
357 351 347 346 349 344 351 5 360 354 355 358 356 353 5 343 72 88 62 79 73 81 55 44 73 2 9 263 213 202 200 206
1 351 344 350 349 354 359 15 9 358 3 6 4 354 19 17 60 71 67 53 78 87 81 52 60 65 258 14 56 48 52 290
352 348 350 354 358 7 7 19 21 357 5 11 13 7 24 51 61 61 60 56 62 62 67 61 53 54 52 45 44 37 32 21
346 347 353 2 3 7 14 19 21 3 10 15 13 20 36 53 57 63 61 57 63 59 57 64 49 58 49 50 49 43 31 28
3 4 3 5 9 10 17 19 19 10 16 14 20 28 38 48 48 53 56 51 54 57 55 49 45 43 45 46 52 50 46 41
19 8 12 12 13 17 18 18 20 14 22 24 26 31 34 46 49 50 53 46 49 54 51 46 41 40 41 44 50 51 49 45
28 11 7 15 16 16 17 19 21 18 24 29 30 34 37 46 51 54 56 53 52 48 51 46 44 40 37 45 45 43 44 42
35 20 8 13 23 20 19 24 20 25 29 29 29 33 38 41 46 49 51 50 52 57 55 51 49 40 37 46 48 44 37 40
52 21 15 20 30 25 24 26 28 32 36 34 34 39 45 43 47 51 51 51 50 52 50 44 44 38 34 38 43 40 36 34
117 64 48 42 36 38 36 34 34 37 40 40 38 40 44 44 47 49 50 52 53 51 50 47 44 39 34 34 36 37 34 31